Flag for Greenland Weather past 2 weeks in Nuuk, Greenland

Now
16 °F

Sleet. Passing clouds.


Feels Like: -2 °F
Forecast: 12 / 19 °F
Wind: 21 mph from Southwest

Location: Godthaab / Nuuk


UV Index: 0 (Low)

Visibility: 0 mi


Pressure: 29.68 "Hg

Humidity: 86%

Dew point: 12 °F

Location of NuukLocation

Historic Weather in Nuuk

°F

Nuuk temperature yesterday

Maximum temperature yesterday: 23 °F (at 11:50 AM)
Minimum temperature yesterday: 16 °F (at 12:20 AM)
Average temperature yesterday: 18 °F

Past Weeks' High & Low Weather Summary

 TemperatureHumidityPressure
High43 °F (Apr 10, 5:50 AM)100% (Apr 10, 5:50 PM)30.04 "Hg (Apr 10, 5:50 PM)
Low9 °F (Apr 7, 4:50 AM)30% (Apr 9, 9:50 PM)28.50 "Hg (Apr 17, 5:50 AM)
Average20 °F71%29.63 "Hg
* Reported Apr 2 10:20 PM — Apr 17 10:50 PM, Nuuk, Weather by CustomWeather, © 2014

Note: Actual official high and low records may vary slightly from our data, if they occured in-between our weather recording intervals... More about our weather records

Advertising

Historic Weather Conditions — Data for Previous 24 hours

 ConditionsComfort  
Time TempWeatherWind HumidityBarometerVisibility
10:50 PM
Apr 17
16 °FLight snow. Passing clouds.18 mph86%29.68 "Hg1 mi
10:20 PM18 °FLight snow. Passing clouds.16 mph86%29.65 "Hg1 mi
9:50 PM18 °FSleet. Partly sunny.17 mph86%29.65 "Hg1 mi
9:20 PM18 °FLight snow. Partly sunny.18 mph86%29.65 "Hg1 mi
8:50 PM19 °FHeavy snow. Ice fog.18 mph93%29.62 "Hg0 mi
8:20 PM18 °FSnow flurries. Partly sunny.18 mph100%29.62 "Hg1 mi
7:50 PM18 °FSnow flurries. Partly sunny.15 mph86%29.62 "Hg4 mi
7:20 PM18 °FSnow flurries. Partly sunny.13 mph86%29.62 "Hg5 mi
6:50 PM18 °FLight snow. Partly sunny.10 mph86%29.62 "HgN/A
5:50 PM18 °FSnow. Partly sunny.13 mph93%29.59 "Hg1 mi
4:50 PM18 °FLight snow. Broken clouds.16 mph79%29.56 "HgN/A
3:50 PM18 °FLight snow. Overcast.16 mph73%29.53 "Hg4 mi
2:50 PM18 °FLight snow. Ice fog.23 mph86%29.47 "Hg3 mi
2:20 PM18 °FLight snow. Ice fog.15 mph86%29.45 "Hg3 mi
1:50 PM18 °FLight snow. Ice fog.16 mph93%29.42 "Hg1 mi
12:50 PM18 °FSnow. Ice fog.20 mph93%29.33 "Hg1 mi
11:50 AM18 °FSnow flurries. Partly sunny.18 mph93%29.27 "Hg2 mi
10:50 AM19 °FSnow flurries. Partly sunny.17 mph86%29.18 "Hg1 mi
9:50 AM19 °FSnow flurries. Mostly cloudy.21 mph100%29.06 "Hg1 mi
8:50 AM23 °FHeavy snow. Ice fog.23 mph93%28.94 "Hg1 mi
7:50 AM25 °FSnow flurries. Partly sunny.21 mph93%28.77 "Hg3 mi
7:20 AM27 °FHeavy snow. Partly sunny.31 mph93%28.65 "Hg0 mi
6:50 AM30 °FHeavy snow. Ice fog.50 mph93%28.50 "Hg0 mi
6:20 AM30 °FLight snow. Overcast.43 mph93%28.50 "Hg1 mi
5:50 AM30 °FHeavy snow. Passing clouds.41 mph100%28.50 "Hg0 mi
5:20 AM30 °FHeavy snow. Passing clouds.44 mph100%28.53 "Hg1 mi
4:50 AM32 °FHeavy snow. Passing clouds.40 mph100%28.53 "Hg0 mi
4:20 AM32 °FSnow. Overcast.40 mph100%28.56 "Hg1 mi
3:50 AM32 °FHeavy snow. Low clouds.45 mph100%28.56 "Hg0 mi
3:20 AM32 °FHeavy snow. Dense fog.46 mph100%28.56 "Hg0 mi
2:50 AMN/AHeavy snow.46 mphN/AN/A0 mi
2:20 AM32 °FSnow. Dense fog.44 mph100%28.59 "Hg1 mi
1:50 AM34 °FLight snow. Dense fog.43 mph93%28.62 "Hg1 mi
1:20 AM32 °FSnow. Dense fog.9 mph100%28.68 "Hg1 mi
Weather by CustomWeather, © 2014

See weather overview